TITAN 3C TRANSTAGE DEB, 1722

Orbit data source: Space-Track

TITAN 3C TRANSTAGE DEB, 1722 is space debris in LEO originally from a launch on Fri, 15 Oct 1965 UTC launched from the Air Force Eastern Test Range (AFETR). Debris objects in space refer to the collection of defunct objects orbiting the Earth. Examples of debris include non-operational satellites, rocket bodies, and fragments generated from explosions, collisions, or faulty payload assembly.

Loading next visibility...
Identifier
1722, 1965-082CD
Orbit
LEO
Last TLE update
16 hours ago
Origin
Manufacturer
Unknown
Mission
Spacecraft
Bus & Motor
Unknown
Mass
Unknown
Launch date (UTC)
1965-10-15 (60 years ago)
Launch vehicle
Unknown
Launch site
Air Force Eastern Test Range (AFETR)
Object type
Payload
Rocket body
Debris
Shape & HBR
Unknown
Radar Cross Section
Small (<0.1 m²)

Expand to show TLE details & history

TLE from 16 hours ago
0 TITAN 3C TRANSTAGE DEB
1 01722U 65082CD  25188.14547515  .00000544  00000-0  96787-4 0  9993
2 01722  32.4166 193.4321 0027628 295.2904  64.4885 14.63423654148416
Epoch: 2025-07-07T03:29Z
TLE epoch observation values (Epoch: 2025-07-07T03:29:29.052Z)
Latitude
-0.00004°
Longitude
-144.29802°
Altitude
672.463 km
Speed
7.527 km/s
True Right ascension
12h 53m 43s
True Declination
0° 00' 00"
Sunlit
Object was in daylight at epoch
Visualization orbit readout
Latitude
-32.13545°
Longitude
132.07539°
Altitude
671.898 km
Speed
7.532 km/s
Apparent Right ascension
06h 17m 12s
Apparent Declination
-81° 46' 57"
Sunlit
Object is in daylight
Visualization observer readout
Local Sidereal Time
07:33:19
Azimuth
183.154° SSW
Elevation
-32.103°
Doppler factor
1
Orbital elements
Apogee altitude
705.212 km
Perigee altitude
666.18 km
Semi-major axis
7,063.833 km
Eccentricity
0.00276
Inclination
32.4166°
RAAN
193.4321°
Arg. of periapsis
295.2904°
True anomaly
Unknown
Mean anomaly
64.4885°
Eccentric anomaly
Unknown
Mean motion
3.6558 °/min
Orbital period
98.47 mins
BSTAR
0.000096787
Loading maneuver chart data...
Loading SW <> Apogee altitude chart data...

TITAN 3C TRANSTAGE DEB Visibility forecast

Observer location: undefined°, undefined°

Span
Click to sort rows by Start time (UTC) header in descending order
Start Az.
Max El. time (UTC)
Max El. Az.
Max El.
End time (UTC)
End Az.
7 mins2025-07-08 04:17:43.680Z210.613° SW2025-07-08 04:20:43.680Z170.3° S21.211°2025-07-08 04:24:43.680Z113.64° SE
7 mins2025-07-08 06:01:43.680Z232.718° WSW2025-07-08 06:04:43.680Z180.803° SSW29.483°2025-07-08 06:08:43.680Z116.798° SE
7 mins2025-07-08 07:45:43.680Z240.028° WSW2025-07-08 07:48:43.680Z190.383° SSW25.326°2025-07-08 07:52:43.680Z135.312° SSE
|